WX5II-2 Weather Reports


Display with metric or nautical units.
time (UTC)temp
F
wind
direction
speed
MPH
gust
MPH
rain 1hr
in
rain 24hr
in
rain mn
in
humidity
%
barometer
mb
20191022033143 0 351 9.0 9.0 0.00 0.00 0.00 1016.6
20191022031941 0 351 9.0 10.0 0.00 0.00 0.00 1016.6
20191022030740 0 351 7.0 7.0 0.00 0.00 0.00 1016.6
20191022025539 67 351 6.0 7.0 0.00 0.00 0.00 10 1016.6
20191022024341 68 351 7.0 10.0 0.00 0.00 0.00 10 1015.6
20191022023144 69 351 8.0 10.0 0.00 0.00 0.00 10 1015.6
20191022021940 69 351 10.0 11.0 0.00 0.00 0.00 10 1015.6
20191022020742 70 351 10.0 12.0 0.00 0.00 0.00 10 1015.6
20191022015540 70 351 10.0 12.0 0.00 0.00 0.00 10 1015.6
20191022014340 71 351 9.0 11.0 0.00 0.00 0.00 10 1014.6
20191022013133 72 351 5.0 9.0 0.00 0.00 0.00 10 1014.6
20191022011928 73 351 11.0 13.0 0.00 0.00 0.00 10 1014.6
20191022010726 73 351 12.0 13.0 0.00 0.00 0.00 10 1013.6
20191022005524 74 351 11.0 13.0 0.00 0.00 0.00 10 1013.6
20191022004323 75 351 10.0 12.0 0.00 0.00 0.00 10 1013.6
20191022003121 76 351 9.0 11.0 0.00 0.00 0.00 10 1013.6
20191022001923 77 351 6.0 4.0 0.00 0.00 0.00 10 1012.6
20191022000720 78 351 0.0 3.0 0.00 0.00 0.00 10 1012.6
20191021234321 79 351 4.0 6.0 0.00 0.00 0.00 10 1011.6
20191021233124 80 351 4.0 7.0 0.00 0.00 0.00 10 1011.6
20191021231925 80 351 4.0 7.0 0.00 0.00 0.00 10 1011.6
20191021230721 80 351 3.0 4.0 0.00 0.00 0.00 10 1010.6
20191021225520 81 351 3.0 6.0 0.00 0.00 0.00 10 1010.6
20191021223759 82 351 3.0 5.0 0.00 0.00 0.00 10 1010.6
20191021222316 82 351 6.0 10.0 0.00 0.00 0.00 10 1010.6
20191021220612 83 351 3.0 7.0 0.00 0.00 0.00 10 1010.6
20191021215047 83 351 0.0 4.0 0.00 0.00 0.00 10 1010.6
20191021213843 84 351 0.0 4.0 0.00 0.00 0.00 10 1010.6
20191021212645 85 351 3.0 3.0 0.00 0.00 0.00 10 1010.6
20191021211429 86 351 3.0 10.0 0.00 0.00 0.00 10 1010.6
20191021210231 85 351 3.0 5.0 0.00 0.00 0.00 10 1010.6
20191021205034 84 351 0.0 4.0 0.00 0.00 0.00 10 1010.6
20191021202227 83 351 5.0 8.0 0.00 0.00 0.00 10 1010.6
20191021201030 83 351 0.0 4.0 0.00 0.00 0.00 10 1011.6
20191021195542 83 351 3.0 7.0 0.00 0.00 0.00 10 1011.6
20191021193911 82 351 3.0 12.0 0.00 0.00 0.00 10 1011.6
20191021192618 82 351 0.0 8.0 0.00 0.00 0.00 10 1011.6
20191021191014 81 351 5.0 4.0 0.00 0.00 0.00 10 1011.6
20191021185812 81 351 5.0 8.0 0.00 0.00 0.00 10 1012.6
20191021184612 80 351 4.0 8.0 0.00 0.00 0.00 10 1012.6
20191021183406 80 351 3.0 7.0 0.00 0.00 0.00 10 1012.6
20191021182207 79 351 9.0 10.0 0.00 0.00 0.00 10 1012.6
20191021181009 79 351 0.0 11.0 0.00 0.00 0.00 10 1012.6
20191021173408 78 351 4.0 8.0 0.00 0.00 0.00 10 1013.6
20191021172205 78 351 7.0 13.0 0.00 0.00 0.00 10 1013.6
20191021171005 77 351 7.0 8.0 0.00 0.00 0.00 10 1013.6
20191021165802 77 351 8.0 9.0 0.00 0.00 0.00 10 1013.6
20191021164559 76 351 10.0 14.0 0.00 0.00 0.00 10 1013.6
20191021163402 76 351 12.0 10.0 0.00 0.00 0.00 10 1013.6
20191021162201 75 351 12.0 18.0 0.00 0.00 0.00 10 1013.6
20191021160950 75 351 13.0 16.0 0.00 0.00 0.00 10 1013.6
20191021155753 74 351 13.0 18.0 0.00 0.00 0.00 10 1013.6
20191021154556 74 351 20.0 23.0 0.00 0.00 0.00 10 1013.6
20191021153350 73 351 19.0 22.0 0.00 0.00 0.00 10 1013.6
20191021152144 73 351 16.0 21.0 0.00 0.00 0.00 10 1013.6
20191021151050 72 351 17.0 26.0 0.00 0.00 0.00 10 1013.6
20191021150946 72 351 17.0 26.0 0.00 0.00 0.00 10 1013.6
20191021145745 71 351 19.0 18.0 0.00 0.00 0.00 10 1013.6
20191021144546 71 351 14.0 22.0 0.00 0.00 0.00 10 1013.6
20191021143339 70 351 12.0 21.0 0.00 0.00 0.00 10 1013.6
20191021142142 69 351 17.0 18.0 0.00 0.00 0.00 10 1013.6
20191021140945 68 351 12.0 21.0 0.00 0.00 0.00 10 1012.6
20191021135745 67 351 14.0 21.0 0.00 0.00 0.00 10 1012.6
20191021134540 66 351 14.0 24.0 0.00 0.00 0.00 10 1011.6
20191021133343 65 351 14.0 20.0 0.00 0.00 0.00 10 1011.6
20191021132144 65 351 15.0 21.0 0.00 0.00 0.00 10 1011.6
20191021130946 65 351 14.0 20.0 0.00 0.00 0.00 10 1011.6
20191021125729 65 351 12.0 18.0 0.00 0.00 0.00 10 1011.6
20191021124531 65 351 12.0 15.0 0.00 0.00 0.00 10 1010.6
20191021123331 65 351 11.0 16.0 0.00 0.00 0.00 10 1010.6
20191021122133 66 351 11.0 16.0 0.00 0.00 0.00 10 1010.6
20191021120912 66 351 11.0 11.0 0.00 0.00 0.00 10 1010.6
20191021115710 66 351 9.0 10.0 0.00 0.00 0.00 10 1010.6
20191021114510 66 347 3.0 7.0 0.00 0.00 0.00 10 1010.6
20191021113314 66 351 0.0 5.0 0.00 0.00 0.00 12 1010.6
20191021112107 66 351 0.0 5.0 0.00 0.00 0.00 12 1010.6
20191021110910 65 351 4.0 7.0 0.00 0.00 0.00 12 1009.6
20191021105714 66 351 6.0 9.0 0.00 0.00 0.00 12 1009.6
20191021104517 66 347 6.0 11.0 0.00 0.00 0.00 12 1009.6
20191021103315 66 351 9.0 13.0 0.00 0.00 0.00 12 1009.6
20191021102117 66 351 8.0 13.0 0.00 0.00 0.00 12 1008.6
20191021100915 66 351 9.0 15.0 0.00 0.00 0.00 12 1008.6
20191021095717 65 351 9.0 12.0 0.00 0.00 0.00 15 1008.6
20191021094515 65 351 12.0 16.0 0.00 0.00 0.00 15 1008.6
20191021093313 67 351 15.0 17.0 0.00 0.00 0.00 10 1008.6
20191021092108 69 351 18.0 23.0 0.00 0.00 0.00 10 1008.6
20191021090909 71 347 20.0 28.0 0.00 0.00 0.00 10 1008.6
20191021085658 74 347 18.0 35.0 0.00 0.00 0.00 10 1008.6
20191021084447 77 347 6.0 7.0 0.00 0.00 0.00 21 1007.6
20191021083232 77 347 5.0 6.0 0.00 0.00 0.00 20 1007.6
20191021082027 77 347 0.0 0.0 0.00 0.00 0.00 18 1007.6
20191021080825 77 347 0.0 0.0 0.00 0.00 0.00 18 1007.6
20191021075628 78 347 0.0 0.0 0.00 0.00 0.00 15 1007.6
20191021074432 78 347 0.0 0.0 0.00 0.00 0.00 15 1007.6
20191021073235 78 347 0.0 3.0 0.00 0.00 0.00 15 1007.6
20191021072033 78 347 0.0 5.0 0.00 0.00 0.00 15 1007.6
20191021070830 78 347 4.0 7.0 0.00 0.00 0.00 15 1007.6
20191021065619 78 347 6.0 8.0 0.00 0.00 0.00 15 1007.6
20191021064421 78 347 0.0 9.0 0.00 0.00 0.00 15 1006.6
20191021063202 78 351 10.0 11.0 0.00 0.00 0.00 15 1006.6
20191021062005 78 351 9.0 10.0 0.00 0.00 0.00 15 1006.6
20191021060751 78 347 9.0 10.0 0.00 0.00 0.00 15 1006.6
20191021055550 78 347 6.0 10.0 0.00 0.00 0.00 12 1006.6
20191021054338 78 351 6.0 9.0 0.00 0.00 0.00 12 1006.6
20191021053139 78 347 7.0 10.0 0.00 0.00 0.00 12 1006.6
20191021051937 78 347 7.0 11.0 0.00 0.00 0.00 10 1006.6
20191021050737 78 351 8.0 10.0 0.00 0.00 0.00 10 1006.6
20191021045534 78 351 9.0 13.0 0.00 0.00 0.00 10 1007.6
20191021044334 78 347 8.0 9.0 0.00 0.00 0.00 10 1007.6
20191021043136 78 351 7.0 8.0 0.00 0.00 0.00 10 1007.6
20191021041939 79 351 7.0 11.0 0.00 0.00 0.00 10 1006.6
20191021040736 79 351 9.0 12.0 0.00 0.00 0.00 10 1006.6
20191021035539 79 351 9.0 11.0 0.00 0.00 0.00 10 1006.6
20191021034342 80 351 9.0 11.0 0.00 0.00 0.00 10 1006.6